Regional Weather Roundup
Issued by NWS

Home | Current Version | Previous Version | Graphics & Text | Print | Product List | Glossary On
Versions: 1 2 3 4 5 6 7 8 9 10 11 12 13 14 15 16 17 18 19 20 21 22 23 24 25 26 27 28 29 30 31 32 33 34 35 36 37 38 39 40 41 42 43 44 45 46 47 48 49 50
391
ASUS43 KMKX 221700
RWRWI

WISCONSIN REGIONAL WEATHER ROUNDUP
NATIONAL WEATHER SERVICE MILWAUKEE/SULLIVAN WI
1100 AM CST MON JAN 22 2018

NOTE: "FAIR" INDICATES FEW OR NO CLOUDS BELOW 12,000 FEET WITH NO
SIGNIFICANT WEATHER AND/OR OBSTRUCTIONS TO VISIBILITY.

WIZ001-002-006>008-014>016-023>028-221800-
NORTHWEST WISCONSIN

CITY           SKY/WX    TMP DP  RH WIND       PRES   REMARKS
SUPERIOR ARPT  CLOUDY    26  25  97 NE20G29   29.97S WCI  12
ASHLAND        SNOW      28  27  96 NE24G33   29.92F VSB 1/2 WCI  14
HAYWARD        MIX PCPN  28  24  85 NE18G29   29.84S WCI  15
SIREN          CLOUDY    30  25  82 NE15G30   29.83S WCI  19
CUMBERLAND     FLURRIES  30  27  86 NE18G24   29.78R WCI  18
RICE LAKE      CLOUDY    31  28  86 N20       29.80R WCI  19
CHETEK         NOT AVBL
LADYSMITH      CLOUDY    32  28  84 NE16G23   29.79R WCI  21
EAU CLAIRE     NOT AVBL
MENOMONIE      LGT SNOW  33  31  95 N13G18    29.73F VSB 3/4 WCI  23
NEW RICHMOND   CLOUDY    32  25  77 NE17G25   29.77S WCI  20
OSCEOLA        LGT SNOW  31  27  82 NE17      29.82S WCI  20
$$

WIZ003>005-009-010-017-018-221800-
NORTH CENTRAL WISCONSIN

CITY           SKY/WX    TMP DP  RH WIND       PRES   REMARKS
MANITOWISH WTR CLOUDY    27  27 100 NE14G22   29.81F WCI  16
ARBOR VITAE    CLOUDY    32  30  92 NE10G20   29.79F WCI  23
WOODRUFF       CLOUDY    32  30  92 NE10G20   29.79F WCI  23
RHINELANDER    SNOW      31  30  96 NE16G24   29.75F VSB 1/2 WCI  20
EAGLE RIVER    CLOUDY    30  29  99 NE16      29.79F WCI  18
LAND O LAKES   CLOUDY    29  28  97 NE8       29.84F FOG     WCI  21
PHILLIPS       FLURRIES  29  28  93 NE17      29.77S WCI  17
TOMAHAWK       LGT SNOW  31  28  90 NE9G20    29.76F VSB 3/4 WCI  23
MEDFORD        SNOW      31  30  95 NE17G25   29.69S VSB 1/2 WCI  20
MERRILL        LGT SNOW  32  32  99 NE12G20   29.71F VSB 1   WCI  23
$$

WIZ029-030-035-036-043>047-221800-
CENTRAL WISCONSIN

CITY           SKY/WX    TMP DP  RH WIND       PRES   REMARKS
WAUSAU         LGT SNOW  33  30  88 E13G21    29.66F FOG     WCI  24
MOSINEE        LGT SNOW  34  32  93 NE20G28   29.67F WCI  22
MARSHFIELD     LGT SNOW  33  32  96 NE18G28   29.63F VSB 1   WCI  22
STEVENS POINT  CLOUDY    32  32 100 NE22G29   29.66R WCI  19
WAUPACA        CLOUDY    36  33  90 NE13G26   29.66R WCI  27
WAUTOMA        CLOUDY    35  33  92 NE18G24   29.64S WCI  24
WISC RAPIDS    NOT AVBL
CAMP DOUGLAS   LGT RAIN  35  35  99 E16G25    29.60F FOG     WCI  25
$$

WIZ011>013-019>022-031-037>040-048>050-221800-
NORTHEAST WISCONSIN

CITY           SKY/WX    TMP DP  RH WIND       PRES   REMARKS
ANTIGO         LGT SNOW  31  30  96 NE24      29.71F WCI  18
SHAWANO        LGT SNOW  35  32  90 NE16G26   29.72F WCI  25
OCONTO         CLOUDY    33  32  96 NE14G22   29.76F WCI  23
STURGEON BAY   LGT SNOW  34  33  96 NE16G25   29.74F FOG     WCI  24
GREEN BAY      RAIN      35  32  88 NE24      29.67F FOG     WCI  23
MANITOWOC      LGT RAIN  36  35  96 NE12G21   29.68F FOG     WCI  28
APPLETON       LGT RAIN  34  34 100 NE29G41   29.55F FOG     WCI  20
CLINTONVILLE   LGT SNOW  34  32  93 E20G28    29.66F WCI  22
OSHKOSH        CLOUDY    36  34  92 E13G21    29.62R WCI  27
$$

WIZ032>034-041-042-053>061-221800-
SOUTHWEST WISCONSIN

CITY           SKY/WX    TMP DP  RH WIND       PRES   REMARKS
LA CROSSE      LGT RAIN  38  34  85 NE15G25   29.57F FOG     WCI  29
SPARTA         LGT RAIN  34  33  96 NE13G26   29.60F WCI  25
VIROQUA        CLOUDY    34  34 100 E24G30    29.52F WCI  22
BOSCOBEL       LGT RAIN  37  32  82 NE12G22   29.52F WCI  29
PRAIRIE DU CHI LGT RAIN  37  34  90 NE9       29.51F WCI  30
PLATTEVILLE    CLOUDY    38  38 100 E17       29.48F WCI  28
$$

WIZ056-057-062-063-064-067-068-221800-
SOUTH CENTRAL WISCONSIN

CITY           SKY/WX    TMP DP  RH WIND       PRES   REMARKS
REEDSBURG      LGT RAIN  34  34 100 E15       29.58F WCI  24
BARABOO/DELLS  CLOUDY    34  33  96 NE17G24   29.57F WCI  23
LONE ROCK      CLOUDY    37  36  96 E18G25    29.54F FOG     WCI  27
MINERAL POINT  LGT RAIN  37  37 100 NE14G22   29.49F WCI  29
MADISON        LGT RAIN  38  37  97 NE10      29.56F FOG     WCI  31
MIDDLETON      CLOUDY    38  38 100 NE12G17   29.56F WCI  31
WATERTOWN      CLOUDY    38  38 100 E9        29.56R FOG     WCI  32
MONROE         FOG       37  36  93 NE12      29.51F VSB 1/4 WCI  30
JANESVILLE     CLOUDY    39  39 100 NE5       29.54F FOG
$$

WIZ051-052-058>065-066-070>072-221800-
SOUTHEAST WISCONSIN

CITY           SKY/WX    TMP DP  RH WIND       PRES   REMARKS
MILWAUKEE      LGT RAIN  40  40 100 N6        29.56F VSB 3/4
WAUKESHA       CLOUDY    36  36 100 NE10G16   29.57F FOG     WCI  28
MILWAUKEE/TIMM DRIZZLE   37  34  87 NE10      29.59F FOG     WCI  30
RACINE         FOG       42  42 100 S8        29.56F VSB 1/2
BURLINGTON     CLOUDY    39  38  97 NE7       29.55F FOG     WCI  34
KENOSHA        CLOUDY    46  44  93 S8        29.54F FOG
FOND DU LAC    CLOUDY    39  34  82 E17G24    29.60F WCI  30
SHEBOYGAN      RAIN      37  37 100 NE21G28   29.61F FOG     WCI  26
WEST BEND      LGT RAIN  36  36 100 NE20G25   29.58F WCI  25
JUNEAU         CLOUDY    37  36  94 NE10G21   29.59R WCI  30
$$

LSZ147-162-221800-
LAKE SUPERIOR

STATION/POSITION TIME  TEMP    WIND        PRES    WAVE
                       AIR SEA DIR/SP/G            HT/PER
                 (UTC) (F)     (DEG/KT/KT) (MB)    (FT/S)
DEVILS ISLAND    1600   25      50/ 22/ 26 1016.9F
SAXON HARBOR     1640   29      60/ 24/ 32 1012.9F
$$

LMZ867-665-643>646-221800-
LAKE MICHIGAN

STATION/POSITION TIME  TEMP    WIND        PRES    WAVE
                       AIR SEA DIR/SP/G            HT/PER
                 (UTC) (F)     (DEG/KT/KT) (MB)    (FT/S)
NORTHPORT PIER   1640   32      50/  5/ 15 1009.5F
KEWAUNEE LAKESHO 1630   36      40/ 16/ 22 1006.0F
SHEBOYGAN LAKESH 1600   36      20/ 17/ 19 1005.0F
PORT WASHINGTON  1640   38      30/ 13/ 16 1004.1F
MILWAUKEE LAKESH 1630   37      10/  7/  9   N/A
KENOSHA   LAKESH 1600   38     170/ 12/ 17 1001.7
$$

TC  - TEMPERATURE IN CELSIUS
VSB - VISIBILITY IN STATUTE MILES
WCI - WIND CHILL INDEX
HX  - HEAT INDEX





USA.gov is the U.S. government's official web portal to all federal, state and local government web resources and services.